Flag for Norway Weather past 2 weeks in Drammen, Norway

Now
41 °F

Scattered clouds.


Feels Like: 31 °F
Forecast: 28 / 52 °F
Wind: 25 mph from Northwest

Location: Oslo / Fornebu

Current Time: Apr 26, 2015 at 7:22:49 AM

Latest Report: Apr 26, 2015 at 6:50 AM


Visibility: N/A

Pressure: 29.42 "Hg

Humidity: 76%

Dew point: 34 °F

Location of DrammenLocation

Historic Weather in Drammen — Graph

°F

Drammen temperature yesterday

Maximum temperature yesterday: 45 °F (at 12:50 PM)
Minimum temperature yesterday: 37 °F (at 4:20 PM)
Average temperature yesterday: 40 °F

Past Weeks' High & Low Weather Summary

 TemperatureHumidityPressure
High52 °F (Apr 18, 1:50 PM)100% (Apr 14, 3:20 AM)30.51 "Hg (Apr 14, 3:20 AM)
Low37 °F (Apr 12, 6:20 AM)42% (Apr 13, 10:20 AM)29.27 "Hg (Apr 25, 2:50 PM)
Average44 °F78%29.97 "Hg
* Reported Apr 11 6:20 AM — Apr 26 6:20 AM, Drammen, Weather by CustomWeather, © 2015

Note: Actual official high and low records may vary slightly from our data, if they occured in-between our weather recording intervals... More about our weather records

Advertising

Drammen weather history for previous 24 hours

 ConditionsComfort  
Time TempWeatherWind HumidityBarometerVisibility
6:20 AM
Sun, Apr 26
41 °FSprinkles. Passing clouds.23 mph76%29.42 "HgN/A
5:50 AM41 °FSprinkles. Passing clouds.18 mph76%29.42 "HgN/A
5:20 AM41 °FPassing clouds.25 mph76%29.42 "HgN/A
4:50 AM41 °FPassing clouds.20 mph70%29.39 "HgN/A
4:20 AM41 °FPassing clouds.20 mph66%29.39 "HgN/A
3:50 AM41 °FPassing clouds.18 mph70%29.39 "HgN/A
3:20 AM41 °FPassing clouds.18 mph70%29.39 "HgN/A
2:50 AM41 °FPassing clouds.20 mph70%29.39 "HgN/A
2:20 AM41 °FPassing clouds.17 mph70%29.39 "HgN/A
1:50 AM41 °FPassing clouds.20 mph76%29.36 "HgN/A
1:20 AM39 °FSprinkles. Passing clouds.26 mph81%29.36 "HgN/A
12:50 AM39 °FSprinkles. Passing clouds.28 mph81%29.36 "HgN/A
12:20 AM41 °FPartly cloudy.16 mph81%29.36 "HgN/A
11:50 PM
Sat, Apr 25
39 °FChilly.15 mph87%29.36 "HgN/A
10:50 PM39 °FLight rain. Passing clouds.23 mph87%29.33 "HgN/A
10:20 PM41 °FPassing clouds.21 mph76%29.33 "HgN/A
9:50 PM41 °FPartly sunny.20 mph70%29.33 "HgN/A
9:20 PM41 °FBroken clouds.18 mph66%29.30 "HgN/A
8:50 PM41 °FPartly sunny.16 mph66%29.30 "HgN/A
8:20 PM39 °FSprinkles. Partly sunny.14 mph75%29.30 "HgN/A
7:50 PM39 °FSprinkles. Partly sunny.16 mph81%29.30 "HgN/A
7:20 PM39 °FPartly sunny.3 mph81%29.30 "HgN/A
6:50 PM39 °FPartly sunny.5 mph81%29.30 "HgN/A
6:20 PM39 °FPartly sunny.13 mph75%29.27 "HgN/A
5:50 PM39 °FOvercast.13 mph70%29.27 "HgN/A
5:20 PM37 °FOvercast.14 mph81%29.27 "HgN/A
4:50 PM37 °FLight rain. Overcast.17 mph81%29.27 "HgN/A
4:20 PM37 °FLight rain. Overcast.20 mph87%29.27 "HgN/A
3:50 PM39 °FLight rain. Partly sunny.20 mph81%29.27 "HgN/A
3:20 PM39 °FPartly sunny.20 mph75%29.27 "HgN/A
2:50 PM41 °FPartly sunny.21 mph76%29.27 "HgN/A
2:20 PM41 °FSprinkles. Partly sunny.21 mph76%29.30 "HgN/A
1:50 PM41 °FSprinkles. Partly sunny.20 mph66%29.30 "HgN/A
1:20 PM41 °FPartly sunny.20 mph66%29.30 "HgN/A
12:50 PM45 °FSprinkles. Overcast.20 mph66%29.33 "HgN/A
12:20 PM41 °FPartly sunny.18 mph70%29.33 "HgN/A
11:50 AM41 °FLight rain. Partly sunny.16 mph70%29.33 "HgN/A
11:20 AM41 °FPartly sunny.16 mph76%29.33 "HgN/A
10:50 AM41 °FPartly sunny.18 mph76%29.33 "HgN/A
10:20 AM41 °FPassing clouds.18 mph76%29.36 "HgN/A
9:50 AM41 °FBroken clouds.17 mph81%29.36 "HgN/A
9:20 AM41 °FPartly sunny.20 mph76%29.36 "HgN/A
8:50 AM41 °FPartly sunny.18 mph81%29.39 "HgN/A
8:20 AM41 °FPartly sunny.15 mph76%29.39 "HgN/A
7:50 AM41 °FBroken clouds.12 mph70%29.39 "HgN/A
7:20 AM41 °FPartly sunny.10 mph70%29.39 "HgN/A
Weather by CustomWeather, © 2015

See weather overviewHow to use our weather pages